DW5575 Weather Reports


time (UTC)temp
C
wind
direction
speed
KPH
gust
KPH
rain 1hr
cm
rain 24hr
cm
rain mn
cm
humidity
%
barometer
mb
20260506130052 24 42 0.0 0.0 0.00 0.00 0.00 89 1009.6
20260506124546 23 42 0.0 1.6 0.00 0.00 0.00 89 1009.5
20260506123044 23 191 0.0 3.2 0.00 0.00 0.00 89 1009.4
20260506121543 23 78 0.0 0.0 0.00 0.00 0.00 89 1009.3
20260506120047 23 90 0.0 0.0 0.00 0.00 0.00 89 1009.1
20260506114550 23 90 0.0 0.0 0.00 0.00 0.00 88 1009.0
20260506113041 23 90 0.0 0.0 0.00 0.00 0.00 88 1008.8
20260506111543 23 90 0.0 1.6 0.00 0.00 0.00 88 1008.6
20260506110040 23 94 0.0 0.0 0.00 0.00 0.00 87 1008.4
20260506104543 23 117 0.0 0.0 0.00 0.00 0.00 87 1008.3
20260506103037 23 117 0.0 0.0 0.00 0.00 0.00 87 1008.4
20260506101537 23 117 0.0 1.6 0.00 0.00 0.00 87 1008.4
20260506100039 23 278 0.0 3.2 0.00 0.00 0.00 87 1008.1
20260506094537 23 179 0.0 3.2 0.00 0.00 0.00 86 1008.1
20260506093055 23 268 0.0 4.8 0.00 0.00 0.00 86 1007.9
20260506091534 23 273 0.0 6.4 0.00 0.00 0.00 86 1008.0
20260506090036 24 22 0.0 3.2 0.00 0.00 0.00 86 1008.1
20260506084530 24 230 0.0 3.2 0.00 0.00 0.00 86 1008.2
20260506083027 24 219 0.0 1.6 0.00 0.00 0.00 86 1008.3
20260506081526 24 278 0.0 0.0 0.00 0.00 0.00 86 1008.4
20260506073022 24 344 0.0 1.6 0.00 0.00 0.00 86 1008.8
20260506071523 24 250 0.0 1.6 0.00 0.00 0.00 86 1008.9
20260506061518 24 255 0.0 0.0 0.00 0.00 0.00 85 1009.3
20260506044510 25 13 0.0 3.2 0.00 0.00 0.00 83 1009.3
20260506043008 25 271 0.0 6.4 0.00 0.00 0.00 82 1009.3
20260506041508 25 273 0.0 3.2 0.00 0.00 0.00 82 1009.0
20260506040008 25 330 0.0 4.8 0.00 0.00 0.00 81 1008.9
20260506034507 25 208 0.0 3.2 0.00 0.00 0.00 80 1009.0
20260506033006 25 286 0.0 3.2 0.00 0.00 0.00 80 1008.6
20260506031506 25 240 0.0 3.2 0.00 0.00 0.00 80 1008.3
20260506030005 25 293 0.0 4.8 0.00 0.00 0.00 80 1008.3
20260506024506 25 253 0.0 3.2 0.00 0.00 0.00 80 1008.1
20260506023004 25 228 0.0 6.4 0.00 0.00 0.00 79 1007.9
20260506021503 26 123 0.0 9.7 0.00 0.00 0.00 79 1007.8
20260506020003 26 339 0.0 3.2 0.00 0.00 0.00 78 1007.5
20260506014507 26 197 0.0 11.3 0.00 0.00 0.00 77 1007.3
20260506013005 26 259 0.0 4.8 0.00 0.00 0.00 76 1007.2
20260506011502 26 317 0.0 4.8 0.00 0.00 0.00 76 1006.8
20260506010002 26 210 0.0 4.8 0.00 0.00 0.00 75 1006.6
20260506004501 26 317 0.0 3.2 0.00 0.00 0.00 74 1006.6
20260506003101 26 263 0.0 4.8 0.00 0.00 0.00 74 1006.5
20260506001607 27 232 1.6 8.0 0.00 0.00 0.00 74 1006.4
20260506000159 27 313 1.6 6.4 0.00 0.00 0.00 73 1006.5
20260505234616 27 244 1.6 8.0 0.00 0.00 0.00 72 1006.4
20260505233059 27 277 0.0 6.4 0.00 0.00 0.00 72 1006.3
20260505231600 27 206 0.0 8.0 0.00 0.00 0.00 71 1006.3
20260505230057 27 265 3.2 8.0 0.00 0.00 0.00 72 1006.4
20260505224556 27 337 1.6 6.4 0.00 0.00 0.00 72 1006.4
20260505223059 28 360 1.6 8.0 0.00 0.00 0.00 71 1006.4
20260505221559 28 347 1.6 8.0 0.00 0.00 0.00 70 1006.5
20260505220105 28 187 1.6 9.7 0.00 0.00 0.00 70 1006.6
20260505214601 28 331 1.6 11.3 0.00 0.00 0.00 71 1006.8
20260505213050 28 206 3.2 14.5 0.00 0.00 0.00 70 1006.9
20260505211616 28 266 1.6 8.0 0.00 0.00 0.00 72 1007.1
20260505210047 28 302 1.6 6.4 0.00 0.00 0.00 71 1007.2
20260505204557 28 235 1.6 6.4 0.00 0.00 0.00 70 1007.5
20260505203044 28 234 1.6 6.4 0.00 0.00 0.00 70 1007.6
20260505201542 29 190 1.6 6.4 0.00 0.00 0.00 70 1008.0
20260505200039 28 192 1.6 14.5 0.00 0.00 0.00 71 1008.1
20260505194537 28 247 1.6 9.7 0.00 0.00 0.00 71 1008.3
20260505193036 28 288 1.6 11.3 0.00 0.00 0.00 71 1008.4
20260505191536 28 240 1.6 8.0 0.00 0.00 0.00 71 1008.5
20260505190034 28 252 0.0 6.4 0.00 0.00 0.00 73 1008.5
20260505184540 28 253 0.0 9.7 0.00 0.00 0.00 72 1008.7
20260505183031 28 172 3.2 9.7 0.00 0.00 0.00 72 1008.7
20260505181530 27 237 1.6 16.1 0.00 0.00 0.00 74 1008.8
20260505180026 27 175 1.6 11.3 0.00 0.00 0.00 76 1008.9
20260505174535 26 310 1.6 11.3 0.00 0.00 0.00 76 1009.2
20260505173024 26 201 0.0 4.8 0.00 0.00 0.00 76 1009.3
20260505171532 26 254 0.0 6.4 0.00 0.00 0.00 77 1009.3
20260505170023 26 221 3.2 8.0 0.00 0.00 0.00 76 1009.3
20260505164519 26 178 0.0 6.4 0.00 0.00 0.00 79 1009.4
20260505163016 25 259 3.2 12.9 0.00 0.00 0.00 80 1009.3
20260505161514 25 194 1.6 11.3 0.00 0.00 0.00 80 1009.3
20260505153023 25 200 1.6 11.3 0.00 0.00 0.00 83 1009.0
20260505151507 24 45 0.0 8.0 0.00 0.00 0.00 83 1009.1